Flag for U.S.A. Weather past 2 weeks in Shreveport, Louisiana, U.S.A.

Now
60 °F

Passing clouds.


Feels Like: 60 °F
Forecast: 52 / 74 °F
Wind: 6 mph from East

Location: Shreveport Regional Airport

Current Time: Oct 23, 2014 at 1:49:16 AM

Latest Report: Oct 23, 2014 at 12:56 AM


Visibility: 10 mi

Pressure: 30.12 "Hg

Humidity: 75%

Dew point: 52 °F

Location of ShreveportLocation

Historic Weather in Shreveport — Graph

°F

Shreveport temperature yesterday

Maximum temperature yesterday: 79 °F (at 2:56 PM)
Minimum temperature yesterday: 56 °F (at 7:56 AM)
Average temperature yesterday: 66 °F

Past Weeks' High & Low Weather Summary

 TemperatureHumidityPressure
High89 °F (Oct 10, 1:56 PM)100% (Oct 11, 4:56 AM)30.19 "Hg (Oct 11, 4:56 AM)
Low48 °F (Oct 15, 3:56 AM)27% (Oct 14, 4:56 PM)29.65 "Hg (Oct 13, 5:56 AM)
Average68 °F74%29.98 "Hg
* Reported Oct 8 12:56 AM — Oct 23 12:56 AM, Shreveport, Weather by CustomWeather, © 2014

Note: Actual official high and low records may vary slightly from our data, if they occured in-between our weather recording intervals... More about our weather records

Advertising

Shreveport weather history for previous 24 hours

 ConditionsComfort  
Time TempWeatherWind HumidityBarometerVisibility
12:56 AM
Oct 23
60 °FPassing clouds.6 mph75%30.12 "Hg10 mi
11:56 PM
Oct 22
60 °FClear.6 mph75%30.13 "Hg10 mi
10:56 PM62 °FClear.7 mph73%30.14 "Hg10 mi
9:56 PM62 °FClear.6 mph73%30.14 "Hg10 mi
8:56 PM64 °FClear.7 mph68%30.12 "Hg10 mi
7:56 PM64 °FClear.7 mph65%30.11 "Hg10 mi
6:56 PM67 °FSunny.6 mph57%30.08 "Hg10 mi
5:56 PM74 °FSunny.9 mph45%30.08 "Hg10 mi
4:56 PM76 °FSunny.9 mph40%30.07 "Hg10 mi
3:56 PM78 °FSunny.8 mph35%30.08 "Hg10 mi
2:56 PM79 °FSunny.7 mph36%30.09 "Hg10 mi
1:56 PM78 °FSunny.10 mph36%30.11 "Hg10 mi
12:56 PM77 °FSunny.12 mph40%30.14 "Hg10 mi
11:56 AM75 °FSunny.7 mph43%30.16 "Hg10 mi
10:56 AM73 °FSunny.8 mph46%30.17 "Hg10 mi
9:56 AM69 °FSunny.7 mph59%30.16 "Hg10 mi
8:56 AM64 °FSunny.No wind78%30.14 "Hg10 mi
7:56 AM56 °FClear.No wind97%30.12 "Hg7 mi
6:56 AM59 °FClear.No wind90%30.11 "Hg9 mi
5:56 AM59 °FClear.3 mph93%30.09 "Hg8 mi
5:04 AM59 °FFog.No wind93%30.09 "Hg3 mi
4:56 AM58 °FFog.No wind93%30.08 "Hg1 mi
3:56 AM57 °FClear.No wind93%30.06 "Hg10 mi
2:56 AM60 °FClear.No wind93%30.07 "Hg7 mi
1:56 AM61 °FClear.No wind90%30.06 "Hg8 mi
Weather by CustomWeather, © 2014

See weather overviewHow to use our weather pages